When you browse on this site, cookies collect data to enhance your experience and personalize the content and advertising you see.
Visit our Privacy Policy to learn more. By continuing to use the site, you agree to this use of cookies and data.
  • In Romania
  • List of Countries
  • For 7 days
  • Water Temperature
  • Satellite Maps
  • Weather Map
  • Weather Widgets
  • user-avatar
    Login

    Hourly Weather Arpino

    Today, 16 February, Saturday

    Time Temperature Precipitation Wind Pressure Humidity
    00:00 +4°C° 0 mm 2 mps 732 mmHg 81%
    01:00 +4°C° 0 mm 2 mps 732 mmHg 82%
    02:00 +4°C° 0 mm 2 mps 732 mmHg 82%
    03:00 +4°C° 0 mm 2 mps 732 mmHg 83%
    04:00 +3°C° 0 mm 2 mps 732 mmHg 83%
    05:00 +3°C° 0 mm 2 mps 732 mmHg 82%
    06:00 +3°C° 0 mm 2 mps 733 mmHg 80%
    07:00 +3°C° 0 mm 2 mps 733 mmHg 78%
    08:00 +6°C° 0 mm 1 mps 733 mmHg 69%
    09:00 +8°C° 0 mm 1 mps 734 mmHg 59%
    10:00 +10°C° 0 mm 1 mps 734 mmHg 50%
    11:00 +11°C° 0 mm 1 mps 734 mmHg 47%
    12:00 +12°C° 0 mm 1 mps 734 mmHg 45%
    13:00 +13°C° 0 mm 1 mps 734 mmHg 42%
    14:00 +13°C° 0 mm 1 mps 734 mmHg 44%
    15:00 +13°C° 0 mm 1 mps 734 mmHg 47%
    16:00 +13°C° 0 mm 1 mps 733 mmHg 49%
    17:00 +11°C° 0 mm 1 mps 733 mmHg 57%
    18:00 +9°C° 0 mm 1 mps 733 mmHg 64%
    19:00 +7°C° 0 mm 1 mps 733 mmHg 72%
    20:00 +7°C° 0 mm 1 mps 733 mmHg 70%
    21:00 +7°C° 0 mm 1 mps 733 mmHg 68%
    22:00 +6°C° 0 mm 1 mps 733 mmHg 65%
    23:00 +6°C° 0 mm 1 mps 733 mmHg 62%

    Tomorrow, 17 February, Sunday

    Time Temperature Precipitation Wind Pressure Humidity
    00:00 +6°C° 0 mm 1 mps 733 mmHg 59%
    01:00 +6°C° 0 mm 1 mps 733 mmHg 55%
    02:00 +6°C° 0 mm 1 mps 733 mmHg 52%
    03:00 +6°C° 0 mm 1 mps 733 mmHg 50%
    04:00 +6°C° 0 mm 1 mps 732 mmHg 47%
    05:00 +6°C° 0 mm 1 mps 732 mmHg 45%
    06:00 +6°C° 0 mm 1 mps 732 mmHg 43%
    07:00 +5°C° 0 mm 1 mps 732 mmHg 41%
    08:00 +8°C° 0 mm 1 mps 733 mmHg 40%
    09:00 +10°C° 0 mm 1 mps 733 mmHg 38%
    10:00 +11°C° 0 mm 0 mps 733 mmHg 36%
    11:00 +13°C° 0 mm 1 mps 733 mmHg 37%
    12:00 +14°C° 0 mm 1 mps 733 mmHg 38%
    13:00 +14°C° 0 mm 1 mps 733 mmHg 39%
    14:00 +14°C° 0 mm 1 mps 733 mmHg 43%
    15:00 +14°C° 0 mm 1 mps 732 mmHg 48%
    16:00 +14°C° 0 mm 1 mps 732 mmHg 52%
    17:00 +12°C° 0 mm 1 mps 732 mmHg 61%
    18:00 +9°C° 0 mm 0 mps 732 mmHg 70%
    19:00 +7°C° 0 mm 0 mps 732 mmHg 78%
    20:00 +6°C° 0 mm 0 mps 732 mmHg 78%
    21:00 +6°C° 0 mm 0 mps 731 mmHg 77%
    22:00 +6°C° 0 mm 0 mps 731 mmHg 77%
    23:00 +6°C° 0 mm 0 mps 731 mmHg 76%

    Day after tomorrow, 18 February, Monday

    Time Temperature Precipitation Wind Pressure Humidity
    00:00 +5°C° 0 mm 0 mps 731 mmHg 75%
    01:00 +6°C° 0 mm 1 mps 731 mmHg 75%
    02:00 +6°C° 0 mm 1 mps 731 mmHg 74%
    03:00 +6°C° 0 mm 1 mps 730 mmHg 73%
    04:00 +6°C° 0 mm 1 mps 730 mmHg 73%
    05:00 +6°C° 0 mm 1 mps 730 mmHg 71%
    06:00 +6°C° 0 mm 1 mps 730 mmHg 70%
    07:00 +5°C° 0 mm 1 mps 730 mmHg 69%
    08:00 +8°C° 0 mm 1 mps 730 mmHg 65%
    09:00 +10°C° 0 mm 1 mps 731 mmHg 60%
    10:00 +12°C° 0 mm 1 mps 731 mmHg 55%
    11:00 +12°C° 0 mm 1 mps 731 mmHg 55%
    12:00 +13°C° 0 mm 1 mps 731 mmHg 54%
    13:00 +14°C° 0 mm 2 mps 731 mmHg 53%
    14:00 +14°C° 0 mm 2 mps 730 mmHg 56%
    15:00 +13°C° 0 mm 2 mps 730 mmHg 59%
    16:00 +13°C° 0 mm 2 mps 730 mmHg 62%
    17:00 +11°C° 0 mm 1 mps 730 mmHg 70%
    18:00 +9°C° 0 mm 1 mps 729 mmHg 79%
    19:00 +6°C° 0 mm 0 mps 729 mmHg 87%
    20:00 +6°C° 0 mm 0 mps 729 mmHg 88%
    21:00 +6°C° 0 mm 0 mps 730 mmHg 88%
    22:00 +6°C° 0 mm 0 mps 730 mmHg 88%
    23:00 +5°C° 0 mm 0 mps 730 mmHg 88%

    19 February, Tuesday

    Time Temperature Precipitation Wind Pressure Humidity
    00:00 +5°C° 0 mm 0 mps 730 mmHg 88%
    01:00 +5°C° 0 mm 0 mps 730 mmHg 88%
    02:00 +5°C° 0 mm 0 mps 729 mmHg 88%
    03:00 +5°C° 0 mm 0 mps 729 mmHg 87%
    04:00 +4°C° 0 mm 0 mps 729 mmHg 87%
    05:00 +5°C° 0 mm 1 mps 729 mmHg 86%
    06:00 +5°C° 0 mm 1 mps 729 mmHg 86%
    07:00 +5°C° 0 mm 1 mps 729 mmHg 85%
    08:00 +7°C° 0 mm 1 mps 730 mmHg 77%
    09:00 +9°C° 0 mm 1 mps 730 mmHg 69%
    10:00 +11°C° 0 mm 1 mps 731 mmHg 61%
    11:00 +12°C° 0 mm 1 mps 730 mmHg 58%
    12:00 +13°C° 0 mm 2 mps 730 mmHg 54%
    13:00 +13°C° 0 mm 2 mps 730 mmHg 51%
    14:00 +13°C° 0 mm 2 mps 730 mmHg 54%
    15:00 +13°C° 0 mm 2 mps 730 mmHg 57%
    16:00 +13°C° 0 mm 2 mps 729 mmHg 60%
    17:00 +11°C° 0 mm 1 mps 729 mmHg 70%
    18:00 +9°C° 0 mm 1 mps 729 mmHg 79%
    19:00 +6°C° 0 mm 0 mps 729 mmHg 89%
    20:00 +6°C° 0 mm 0 mps 730 mmHg 89%
    21:00 +5°C° 0 mm 0 mps 730 mmHg 89%
    22:00 +6°C° 0 mm 1 mps 730 mmHg 89%
    23:00 +6°C° 0 mm 1 mps 730 mmHg 89%

    20 February, Wednesday

    Time Temperature Precipitation Wind Pressure Humidity
    00:00 +6°C° 0 mm 1 mps 730 mmHg 88%
    01:00 +6°C° 0 mm 1 mps 730 mmHg 87%
    02:00 +6°C° 0 mm 1 mps 730 mmHg 86%
    03:00 +6°C° 0 mm 1 mps 730 mmHg 85%
    04:00 +5°C° 0 mm 1 mps 730 mmHg 84%
    05:00 +5°C° 0 mm 1 mps 730 mmHg 82%
    06:00 +5°C° 0 mm 1 mps 730 mmHg 81%
    07:00 +5°C° 0 mm 1 mps 730 mmHg 79%
    08:00 +7°C° 0 mm 1 mps 731 mmHg 73%
    09:00 +9°C° 0 mm 1 mps 731 mmHg 67%
    10:00 +12°C° 0 mm 1 mps 732 mmHg 60%
    11:00 +12°C° 0 mm 1 mps 732 mmHg 56%
    12:00 +13°C° 0 mm 1 mps 731 mmHg 53%
    13:00 +14°C° 0 mm 1 mps 731 mmHg 49%
    14:00 +14°C° 0 mm 1 mps 731 mmHg 51%
    15:00 +14°C° 0 mm 1 mps 731 mmHg 53%
    16:00 +14°C° 0 mm 1 mps 731 mmHg 54%
    17:00 +12°C° 0 mm 1 mps 731 mmHg 63%
    18:00 +9°C° 0 mm 0 mps 731 mmHg 73%
    19:00 +7°C° 0 mm 0 mps 731 mmHg 82%
    20:00 +7°C° 0 mm 0 mps 731 mmHg 83%
    21:00 +7°C° 0 mm 0 mps 731 mmHg 84%
    22:00 +8°C° 0 mm 1 mps 732 mmHg 86%
    23:00 +7°C° 0 mm 1 mps 732 mmHg 85%

    21 February, Thursday

    Time Temperature Precipitation Wind Pressure Humidity
    00:00 +7°C° 0 mm 1 mps 732 mmHg 85%
    01:00 +7°C° 0 mm 1 mps 731 mmHg 85%
    02:00 +7°C° 0 mm 1 mps 731 mmHg 85%
    03:00 +7°C° 0 mm 1 mps 731 mmHg 85%
    04:00 +6°C° 0 mm 1 mps 731 mmHg 84%
    05:00 +6°C° 0 mm 1 mps 731 mmHg 84%
    06:00 +6°C° 0 mm 1 mps 731 mmHg 84%
    07:00 +6°C° 0 mm 1 mps 731 mmHg 84%
    08:00 +8°C° 0 mm 1 mps 732 mmHg 77%
    09:00 +10°C° 0 mm 1 mps 732 mmHg 70%
    10:00 +11°C° 0 mm 0 mps 733 mmHg 63%
    11:00 +13°C° 0 mm 1 mps 732 mmHg 60%
    12:00 +14°C° 0 mm 1 mps 732 mmHg 57%
    13:00 +15°C° 0 mm 1 mps 732 mmHg 54%
    14:00 +14°C° 0 mm 1 mps 732 mmHg 55%
    15:00 +14°C° 0 mm 1 mps 732 mmHg 57%
    16:00 +14°C° 0 mm 1 mps 731 mmHg 58%
    17:00 +12°C° 0 mm 1 mps 731 mmHg 66%
    18:00 +11°C° 0 mm 1 mps 731 mmHg 74%
    19:00 +8°C° 0 mm 0 mps 731 mmHg 81%
    20:00 +7°C° 0 mm 0 mps 731 mmHg 81%
    21:00 +8°C° 0 mm 1 mps 731 mmHg 81%
    22:00 +8°C° 0 mm 1 mps 731 mmHg 81%
    23:00 +7°C° 0 mm 1 mps 731 mmHg 80%
    Show more